| time (UTC) | temp C | wind direction | speed KPH | gust KPH | rain 1hr cm | rain 24hr cm | rain mn cm | humidity % | barometer mb |
| 20260906224503 | 28 | 323 | 3.2 | 8.0 | 0.00 | 0.00 | 0.00 | 10 | 1007.3 |
| 20260906223100 | 28 | 316 | 6.4 | 9.7 | 0.00 | 0.00 | 0.00 | 11 | 1007.6 |
| 20260906221602 | 28 | 317 | 4.8 | 12.9 | 0.00 | 0.00 | 0.00 | 11 | 1008.0 |
| 20260906220056 | 28 | 335 | 3.2 | 12.9 | 0.00 | 0.00 | 0.00 | 11 | 1008.3 |
| 20260906214552 | 27 | 236 | 1.6 | 8.0 | 0.00 | 0.00 | 0.00 | 12 | 1008.7 |
| 20260906213102 | 27 | 319 | 1.6 | 6.4 | 0.00 | 0.00 | 0.00 | 13 | 1008.8 |
| 20260906211552 | 27 | 283 | 0.0 | 11.3 | 0.00 | 0.00 | 0.00 | 13 | 1009.0 |
| 20260906210053 | 27 | 254 | 4.8 | 9.7 | 0.00 | 0.00 | 0.00 | 13 | 1008.9 |
| 20260906204559 | 27 | 284 | 4.8 | 11.3 | 0.00 | 0.00 | 0.00 | 13 | 1009.2 |
| 20260906203043 | 27 | 113 | 3.2 | 11.3 | 0.00 | 0.00 | 0.00 | 13 | 1009.3 |
| 20260906201558 | 26 | 267 | 0.0 | 9.7 | 0.00 | 0.00 | 0.00 | 14 | 1009.4 |
| 20260906200038 | 26 | 127 | 3.2 | 11.3 | 0.00 | 0.00 | 0.00 | 12 | 1009.8 |
| 20260906194536 | 27 | 228 | 1.6 | 6.4 | 0.00 | 0.00 | 0.00 | 14 | 1009.8 |
| 20260906193035 | 27 | 317 | 3.2 | 12.9 | 0.00 | 0.00 | 0.00 | 11 | 1010.0 |
| 20260906191533 | 27 | 285 | 1.6 | 8.0 | 0.00 | 0.00 | 0.00 | 10 | 1010.2 |
| 20260906190030 | 27 | 46 | 0.0 | 6.4 | 0.00 | 0.00 | 0.00 | 10 | 1010.4 |
| 20260906184528 | 26 | 245 | 3.2 | 11.3 | 0.00 | 0.00 | 0.00 | 13 | 1010.7 |
| 20260906183027 | 24 | 344 | 0.0 | 4.8 | 0.00 | 0.00 | 0.00 | 13 | 1010.8 |
| 20260906181524 | 26 | 338 | 0.0 | 9.7 | 0.00 | 0.00 | 0.00 | 11 | 1010.9 |
| 20260906180037 | 26 | 165 | 3.2 | 6.4 | 0.00 | 0.00 | 0.00 | 10 | 1011.3 |
| 20260906174520 | 25 | 74 | 1.6 | 9.7 | 0.00 | 0.00 | 0.00 | 11 | 1011.6 |
| 20260906173015 | 25 | 70 | 0.0 | 3.2 | 0.00 | 0.00 | 0.00 | 14 | 1011.6 |
| 20260906171510 | 23 | 275 | 0.0 | 1.6 | 0.00 | 0.00 | 0.00 | 16 | 1011.8 |
| 20260906170007 | 23 | 117 | 1.6 | 11.3 | 0.00 | 0.00 | 0.00 | 12 | 1011.9 |
| 20260906164503 | 22 | 273 | 0.0 | 0.0 | 0.00 | 0.00 | 0.00 | 14 | 1012.0 |
| 20260906163108 | 20 | 300 | 0.0 | 0.0 | 0.00 | 0.00 | 0.00 | 23 | 1012.2 |
| 20260906161555 | 17 | 300 | 0.0 | 0.0 | 0.00 | 0.00 | 0.00 | 27 | 1012.3 |
| 20260906160051 | 16 | 309 | 0.0 | 0.0 | 0.00 | 0.00 | 0.00 | 32 | 1012.6 |
| 20260906154552 | 14 | 309 | 0.0 | 0.0 | 0.00 | 0.00 | 0.00 | 39 | 1012.7 |
| 20260906153041 | 11 | 288 | 0.0 | 0.0 | 0.00 | 0.00 | 0.00 | 49 | 1012.8 |
| 20260906151540 | 8 | 274 | 0.0 | 0.0 | 0.00 | 0.00 | 0.00 | 55 | 1013.1 |
| 20260906150035 | 7 | 234 | 0.0 | 0.0 | 0.00 | 0.00 | 0.00 | 60 | 1013.1 |
| 20260906144534 | 7 | 238 | 0.0 | 0.0 | 0.00 | 0.00 | 0.00 | 60 | 1013.3 |
| 20260906143036 | 6 | 238 | 0.0 | 0.0 | 0.00 | 0.00 | 0.00 | 61 | 1013.3 |
| 20260906141531 | 5 | 239 | 0.0 | 0.0 | 0.00 | 0.00 | 0.00 | 65 | 1013.2 |
| 20260906140032 | 4 | 245 | 0.0 | 0.0 | 0.00 | 0.00 | 0.00 | 63 | 1013.3 |
| 20260906134523 | 5 | 271 | 0.0 | 0.0 | 0.00 | 0.00 | 0.00 | 62 | 1013.4 |
| 20260906133021 | 5 | 263 | 0.0 | 0.0 | 0.00 | 0.00 | 0.00 | 62 | 1013.0 |
| 20260906131532 | 5 | 246 | 0.0 | 0.0 | 0.00 | 0.00 | 0.00 | 61 | 1012.9 |
| 20260906130016 | 6 | 245 | 0.0 | 0.0 | 0.00 | 0.00 | 0.00 | 60 | 1012.6 |
| 20260906124515 | 6 | 244 | 0.0 | 0.0 | 0.00 | 0.00 | 0.00 | 60 | 1012.5 |
| 20260906123013 | 6 | 244 | 0.0 | 0.0 | 0.00 | 0.00 | 0.00 | 60 | 1012.5 |
| 20260906121512 | 6 | 242 | 0.0 | 0.0 | 0.00 | 0.00 | 0.00 | 60 | 1012.0 |
| 20260906120010 | 5 | 242 | 0.0 | 0.0 | 0.00 | 0.00 | 0.00 | 61 | 1011.9 |
| 20260906114508 | 5 | 244 | 0.0 | 0.0 | 0.00 | 0.00 | 0.00 | 62 | 1011.8 |
| 20260906113007 | 5 | 244 | 0.0 | 0.0 | 0.00 | 0.00 | 0.00 | 61 | 1011.6 |
| 20260906111505 | 5 | 244 | 0.0 | 0.0 | 0.00 | 0.00 | 0.00 | 61 | 1011.7 |
| 20260906110003 | 5 | 243 | 0.0 | 0.0 | 0.00 | 0.00 | 0.00 | 60 | 1011.6 |
| 20260906104503 | 5 | 243 | 0.0 | 0.0 | 0.00 | 0.00 | 0.00 | 59 | 1011.7 |
| 20260906103059 | 6 | 244 | 0.0 | 0.0 | 0.00 | 0.00 | 0.00 | 59 | 1011.6 |
| 20260906101557 | 6 | 240 | 0.0 | 0.0 | 0.00 | 0.00 | 0.00 | 59 | 1011.5 |
| 20260906100054 | 6 | 241 | 0.0 | 0.0 | 0.00 | 0.00 | 0.00 | 58 | 1011.3 |
| 20260906094554 | 6 | 237 | 0.0 | 0.0 | 0.00 | 0.00 | 0.00 | 58 | 1011.2 |
| 20260906093051 | 6 | 238 | 0.0 | 0.0 | 0.00 | 0.00 | 0.00 | 58 | 1011.2 |
| 20260906091549 | 7 | 238 | 0.0 | 0.0 | 0.00 | 0.00 | 0.00 | 57 | 1011.1 |
| 20260906090053 | 7 | 238 | 0.0 | 0.0 | 0.00 | 0.00 | 0.00 | 55 | 1011.2 |
| 20260906084549 | 8 | 238 | 0.0 | 0.0 | 0.00 | 0.00 | 0.00 | 54 | 1011.1 |
| 20260906083041 | 8 | 238 | 0.0 | 0.0 | 0.00 | 0.00 | 0.00 | 54 | 1011.1 |
| 20260906081538 | 8 | 238 | 0.0 | 0.0 | 0.00 | 0.00 | 0.00 | 53 | 1011.2 |
| 20260906080036 | 8 | 239 | 0.0 | 0.0 | 0.00 | 0.00 | 0.00 | 52 | 1011.2 |
| 20260906074534 | 9 | 236 | 0.0 | 0.0 | 0.00 | 0.00 | 0.00 | 52 | 1011.1 |
| 20260906073039 | 10 | 236 | 0.0 | 0.0 | 0.00 | 0.00 | 0.00 | 51 | 1011.2 |
| 20260906071531 | 10 | 236 | 0.0 | 0.0 | 0.00 | 0.00 | 0.00 | 50 | 1011.0 |
| 20260906070029 | 10 | 308 | 0.0 | 0.0 | 0.00 | 0.00 | 0.00 | 51 | 1011.1 |
| 20260906064528 | 10 | 308 | 0.0 | 0.0 | 0.00 | 0.00 | 0.00 | 51 | 1011.1 |
| 20260906063027 | 10 | 98 | 0.0 | 0.0 | 0.00 | 0.00 | 0.00 | 51 | 1011.2 |
| 20260906061524 | 10 | 97 | 0.0 | 0.0 | 0.00 | 0.00 | 0.00 | 50 | 1011.2 |
| 20260906060030 | 10 | 97 | 0.0 | 0.0 | 0.00 | 0.00 | 0.00 | 50 | 1011.3 |
| 20260906054522 | 10 | 99 | 0.0 | 0.0 | 0.00 | 0.00 | 0.00 | 50 | 1011.3 |
| 20260906053022 | 11 | 95 | 0.0 | 0.0 | 0.00 | 0.00 | 0.00 | 50 | 1011.2 |
| 20260906051521 | 11 | 96 | 0.0 | 0.0 | 0.00 | 0.00 | 0.00 | 49 | 1011.0 |
| 20260906050022 | 11 | 96 | 0.0 | 0.0 | 0.00 | 0.00 | 0.00 | 49 | 1011.0 |
| 20260906044520 | 11 | 93 | 0.0 | 0.0 | 0.00 | 0.00 | 0.00 | 48 | 1010.9 |
| 20260906043028 | 11 | 94 | 0.0 | 0.0 | 0.00 | 0.00 | 0.00 | 48 | 1010.9 |
| 20260906041521 | 12 | 97 | 0.0 | 0.0 | 0.00 | 0.00 | 0.00 | 47 | 1010.9 |
| 20260906040028 | 12 | 144 | 0.0 | 0.0 | 0.00 | 0.00 | 0.00 | 46 | 1010.8 |
| 20260906034530 | 13 | 291 | 0.0 | 0.0 | 0.00 | 0.00 | 0.00 | 43 | 1010.6 |
| 20260906033025 | 13 | 290 | 0.0 | 0.0 | 0.00 | 0.00 | 0.00 | 41 | 1010.4 |
| 20260906031519 | 14 | 282 | 0.0 | 0.0 | 0.00 | 0.00 | 0.00 | 40 | 1010.3 |
| 20260906030017 | 15 | 259 | 0.0 | 0.0 | 0.00 | 0.00 | 0.00 | 38 | 1010.0 |
| 20260906024516 | 16 | 235 | 0.0 | 0.0 | 0.00 | 0.00 | 0.00 | 35 | 1009.8 |
| 20260906023016 | 16 | 288 | 0.0 | 0.0 | 0.00 | 0.00 | 0.00 | 32 | 1009.6 |
| 20260906021517 | 17 | 292 | 0.0 | 0.0 | 0.00 | 0.00 | 0.00 | 31 | 1009.6 |
| 20260906020015 | 18 | 327 | 0.0 | 0.0 | 0.00 | 0.00 | 0.00 | 29 | 1009.3 |
| 20260906014526 | 19 | 327 | 0.0 | 0.0 | 0.00 | 0.00 | 0.00 | 27 | 1009.1 |
| 20260906013016 | 20 | 327 | 0.0 | 1.6 | 0.00 | 0.00 | 0.00 | 22 | 1009.0 |
| 20260906011531 | 21 | 328 | 0.0 | 3.2 | 0.00 | 0.00 | 0.00 | 21 | 1008.8 |
| 20260906010013 | 22 | 327 | 0.0 | 4.8 | 0.00 | 0.00 | 0.00 | 20 | 1008.8 |
| 20260906004521 | 22 | 327 | 3.2 | 8.0 | 0.00 | 0.00 | 0.00 | 19 | 1008.8 |
| 20260906003013 | 23 | 320 | 4.8 | 8.0 | 0.00 | 0.00 | 0.00 | 17 | 1008.6 |
| 20260906001512 | 23 | 312 | 1.6 | 8.0 | 0.00 | 0.00 | 0.00 | 17 | 1008.6 |
| 20260906000010 | 23 | 331 | 3.2 | 12.9 | 0.00 | 0.00 | 0.00 | 18 | 1008.4 |
| 20260905234511 | 23 | 302 | 0.0 | 9.7 | 0.00 | 0.00 | 0.00 | 18 | 1008.4 |
| 20260905233010 | 23 | 311 | 1.6 | 6.4 | 0.00 | 0.00 | 0.00 | 17 | 1008.5 |
| 20260905231510 | 24 | 311 | 0.0 | 4.8 | 0.00 | 0.00 | 0.00 | 18 | 1008.4 |
| 20260905230008 | 25 | 265 | 1.6 | 6.4 | 0.00 | 0.00 | 0.00 | 16 | 1008.4 |